FENGYUN 1C DEB

Satellite information

Favourite Embed

Satellite Type and Status

DEBRISIN ORBIT

Key statistics

Satellite FENGYUN 1C DEB at a glance.

Uptime

9498

Days in orbit

Revolutions

≈ 15.1

Per day

Orbit

SSO

Sun Synchronous Orbit

Inclination

98.9

Latest

Satellite identification and parameters

Extended collection of information and parameters for FENGYUN 1C DEB.

Object identification

Identified? True

Debris? True

Object name: FENGYUN 1C DEB

International designator: 1999-025AGX

Object number (NORAD): 30485

Object ID (CCSDS): 30485

Country: PEOPLES REPUBLIC OF CHINA (PRC)

Current information (Y/N): Y

RCS size: SMALL

Orbital parameters

Period: 95.095 minutes

Inclination: 98.9397 deg

SMA: 6901.341 km

Apoapsis: 550.096 km

Periapsis: 496.315 km

RAAN: 83.9729 deg

Eccentricy: 0.0038964

Argument of periapsis: 50.2138 deg

Mean anomaly: 15.9788 deg

Mean motion: 15.14267365 rev/day

Mean motion (dot): 0.00158541 rev/day2

B* drag term: 0.0083396 1/REarth

Two-line elements (TLE)

Creation date: May 10, 2025, 3:16 p.m.

Reference frame: TEME

Reference center: EARTH

Epoch: May 9, 2025, 8:52 p.m. UTC

TLE line 0: 0 FENGYUN 1C DEB

TLE line 1: 1 30485U 99025AGX 25129.86986514 .00158541 00000-0 83396-2 0 9996

TLE line 2: 2 30485 98.9397 83.9729 0038964 50.2138 15.9788 15.14267365956024

Live tracking on map

Real-time ground track for satellite FENGYUN 1C DEB.

In-orbit conjunctions

A list of the most updated potential collisions computed for object FENGYUN 1C DEB.

Target Orbit TCA Probability of collision Miss distance Type
COSMOS 921 LEO 2024-12-16 22:41:17 0.0001181753 545.0 (m) PAYLOAD
SL-8 DEB * LEO 2024-11-12 20:25:05 0.001492747 115.0 (m) DEBRIS
METEOR 2-6 DEB LEO 2024-07-03 07:51:29 0.0001698743 108.0 (m) DEBRIS

Associated space launch

Chinese polar orbiting meteorological satellite

FENGYUN 1C DEB was lifted into orbit during the mission ‘Long March 4B | Feng Yun 1C’, on board a Long March 4B space rocket.

The launch took place on May 10, 1999, 1:33 a.m. from Launch Complex 7.

For more information about the launch, click the button.

Launch to space Long March 4B | Feng Yun 1C
Long March 4B | Feng Yun 1C

Agency: N/A

Status: Launch Successful

Launch date: May 10, 1999, 1:33 a.m. UTC

Rocket: Long March 4B

Launch pad: Launch Complex 7

Location: Taiyuan Satellite Launch Center, People's Republic of China

...

Latest news about this satellite

There are no fresh news available about this satellite. Check back as we update our databases every day.


Newsletter sign-up

Weekly statistics, charts and insights to help you stay on top of the space industry.